[Iaude] MPEC T84: 2016 TX17 [a=1.83,e=0.59,i=11.3,H=23.4]

mpec at si.edu mpec at si.edu
Sun Oct 9 07:34:01 EDT 2016


M.P.E.C. 2016-T84                                Issued 2016 Oct.  9, 11:28 UT
 
     The Minor Planet Electronic Circulars contain information on unusual
         minor planets and routine data on comets.  They are published
    on behalf of Division F of the International Astronomical Union by the
          Minor Planet Center, Smithsonian Astrophysical Observatory,
                          Cambridge, MA 02138, U.S.A.

             Prepared using the Tamkin Foundation Computer Network

                              MPC at CFA.HARVARD.EDU
            URL http://www.minorplanetcenter.net/    ISSN 1523-6714


                                   2016 TX17
 
Observations:
     K16T17X* C2016 10 06.41568 02 13 48.23 +42 44 09.7          19.9 VqET084G96
     K16T17X  C2016 10 06.42235 02 13 54.22 +42 44 44.5          19.9 VqET084G96
     K16T17X  C2016 10 06.42907 02 14 00.25 +42 45 19.0          19.9 VqET084G96
     K16T17X  C2016 10 06.43426 02 14 04.84 +42 45 44.4                qET084G96
     K16T17X  C2016 10 06.46124 02 14 29.43 +42 48 05.9                qET084G96
     K16T17X  C2016 10 06.46267 02 14 30.57 +42 48 11.9          19.9 VqET084G96
     K16T17X  C2016 10 06.46436 02 14 32.19 +42 48 20.9          20.0 VqET084G96
     K16T17X  C2016 10 06.46635 02 14 33.95 +42 48 30.4          20.2 VqET084G96
     K16T17X  C2016 10 08.20886 02 49 51.40 +45 35 07.7          18.7 RoET084926
     K16T17X  C2016 10 08.21056 02 49 53.90 +45 35 17.5          18.6 RoET084926
     K16T17X KC2016 10 09.11369 03 15 53.51 +47 04 44.6          19.2 RqET084104
     K16T17X KC2016 10 09.11505 03 15 56.12 +47 04 52.0          19.4 RqET084104
     K16T17X KC2016 10 09.12054 03 16 06.74 +47 05 21.5          19.0 RqET084104
     K16T17X IC2016 10 09.34397 03 23 50.24 +47 26 34.4          18.6 RqET084H36
     K16T17X KC2016 10 09.36064 03 24 24.61 +47 28 06.0          19.0 RqET084H36
     K16T17X KC2016 10 09.36619 03 24 36.21 +47 28 36.3          18.6 RqET084H36
     K16T17X KC2016 10 09.37175 03 24 47.72 +47 29 06.2          18.5 RqET084H36
     K16T17X  C2016 10 09.38784 03 25 23.98 +47 30 49.5          19.3 VqET084I52
     K16T17X  C2016 10 09.38827 03 25 24.91 +47 30 51.7          19.4 VqET084I52
     K16T17X  C2016 10 09.38869 03 25 25.73 +47 30 54.0          19.5 VqET084I52
     K16T17X  C2016 10 09.38911 03 25 26.64 +47 30 56.4          19.6 VqET084I52
 
Observer details:
104 San Marcello Pistoiese.  Observers P. Bacci, M. Maestripieri.  Measurers
    P. Bacci, L. Tesi, G. Fagioli.  0.60-m f/4 reflector + CCD.
926 Tenagra II Observatory.  Observers M. Schwartz, P. R. Holvorcem.  Measurer
    M. Schwartz.  0.81-m f/7 Ritchey-Chretien + CCD.
G96 Mt. Lemmon Survey.  Observer R. G. Matheny.  Measurers E. J. Christensen,
    D. C. Fuls, A. R. Gibbs, A. D. Grauer, J. A. Johnson, R. A. Kowalski,
    S. M. Larson, G. J. Leonard, R. G. Matheny, R. L. Seaman, F. C. Shelly.
    1.5-m reflector + 10K CCD.
H36 Sandlot Observatory, Scranton.  Observer G. Hug.  0.56-m reflector + CCD.
I52 Steward Observatory, Mt. Lemmon Station.  Observer D. C. Fuls.  Measurers
    E. J. Christensen, D. C. Fuls, A. R. Gibbs, A. D. Grauer, J. A. Johnson,
    R. A. Kowalski, S. M. Larson, G. J. Leonard, R. G. Matheny, R. L. Seaman,
    F. C. Shelly.  1.0-m reflector + CCD.
 
Orbital elements:
2016 TX17                                                Earth MOID = 0.0109 AU
Epoch 2016 July 31.0 TT = JDT 2457600.5                 MPC
M 312.23418              (2000.0)            P               Q
n   0.39671922     Peri.  247.94557     -0.06909613     -0.99379813
a   1.8343430      Node   206.47425     +0.97212788     -0.04746067
e   0.5943479      Incl.   11.27043     +0.22403819     -0.10056219
P   2.48           H   23.4           G   0.15           U   8
Residuals in seconds of arc
161006 G96  0.1-  0.2+    161006 G96  0.3-  0.4-    161009 H36  0.3-  0.1+
161006 G96  0.1+  0.3+    161008 926  0.3+  0.3+    161009 H36  0.9+  0.1+
161006 G96  0.1+  0.0     161008 926  0.1-  0.8-    161009 H36  0.9+  0.1-
161006 G96  0.7-  1.4-    161009 104  0.1-  0.5+    161009 I52  0.3-  0.0
161006 G96  1.2+  1.3+    161009 104  0.2-  0.4+    161009 I52  0.0   0.1-
161006 G96  0.6-  0.1-    161009 104  0.1+  0.6-    161009 I52  0.5-  0.1-
161006 G96  0.3+  0.3+    161009 H36  0.4-  0.2+    161009 I52  0.1-  0.0

Ephemeris:
2016 TX17                a,e,i = 1.83, 0.59, 11                  q = 0.7441
Date    TT    R. A. (2000) Decl.     Delta      r     Elong.  Phase     V
2016 09 09    00 38 24.4 +27 21 54   0.3770  1.3217   141.0    28.7    23.1
...
2016 09 24    00 59 37.5 +32 30 50   0.2096  1.1816   145.4    28.8    21.6
...
2016 10 02    01 29 45.1 +37 35 36   0.1282  1.1067   143.6    32.5    20.5
...
2016 10 08    02 44 33.1 +45 14 18   0.07306 1.0512   134.0    43.1    19.5
2016 10 09    03 12 13.8 +46 53 41   0.06500 1.0421   130.3    47.0    19.3
2016 10 10    03 49 23.8 +48 20 26   0.05758 1.0329   125.4    52.0    19.2
...
2016 10 16    09 22 33.7 +20 41 25   0.04601 0.9793    66.4   111.2    20.9
...
2016 10 24    11 17 48.0 -10 29 19   0.1093  0.9116    38.5   137.3    24.9
...
2016 11 08    12 05 50.1 -19 55 22   0.2637  0.8060    39.8   128.1    25.6

A. U. Tomatic                (C) Copyright 2016 MPC           M.P.E.C. 2016-T84




More information about the Iaude mailing list